Regional Weather Roundup
Issued by NWS

Home | Current Version | Previous Version | Text Only | Print | Product List | Glossary Off
Versions: 1 2 3 4 5 6 7 8 9 10 11 12 13 14 15 16 17 18 19 20 21 22 23 24 25 26 27 28 29 30 31 32 33 34 35 36 37 38 39 40 41 42 43 44 45 46 47 48 49 50

000
ASUS44 KMEG 201810
RWRTN
TENNESSEE HOURLY STATE WEATHER ROUNDUP
NATIONAL WEATHER SERVICE MEMPHIS TN
1200 PM CST SAT JAN 20 2018

TNZ002-004-019-021-049-052-054-088>092-201900-
WEST TENNESSEE

CITY           SKY/WX    TMP DP  RH WIND       PRES   REMARKS
MEMPHIS INTL   PTSUNNY   58  44  60 S13G23    30.16F
NWS MEMPHIS      N/A     56 N/A N/A MISG        N/A
JACKSON        PTSUNNY   58  39  49 S12       30.16F
DYERSBURG      CLOUDY    48  28  46 S7        30.16F
SOMERVILLE     CLOUDY    59  41  51 S10       30.16F
COVINGTON      CLOUDY    54  39  58 S10       30.16F
UNION CITY     CLOUDY    46  28  49 S7        30.15F
BOLIVAR        PTSUNNY   59  41  51 S9G15     30.17F
PARIS          CLOUDY    45  28  53 SW8       30.15F
HUNTINGDON     CLOUDY    50  32  50 S6        30.15F
LEXINGTON      PTSUNNY   59  28  31 S8G15     30.18F
SELMER         PTSUNNY   57  37  47 VRB6      30.18F
SAVANNAH       MOSUNNY   59  39  47 SW10      30.19F
$$

TNZ008-025-027-028-033-062-065-066-201900-
NORTH MIDDLE TENNESSEE

CITY           SKY/WX    TMP DP  RH WIND       PRES   REMARKS
NASHVILLE      PTSUNNY   60  28  29 S8        30.20F
PORTLAND       CLOUDY    52  36  54 SW8       30.18F
CLARKSVILLE    CLOUDY    48  30  49 SW8       30.17F
SMYRNA         CLOUDY    59  33  37 W12       30.21F
COOKEVILLE     PTSUNNY   57  30  35 SW10      30.20F
GALLATIN       MOSUNNY   57  28  33 VRB6G13   30.22F
CROSSVILLE     PTSUNNY   52  29  41 W8        30.21F
$$

TNZ061-075-076-078-094-096-097-201900-
SOUTH MIDDLE TENNESSEE

CITY           SKY/WX    TMP DP  RH WIND       PRES   REMARKS
FAYETTEVILLE   CLOUDY    57  27  30 S10       30.22F
TULLAHOMA      CLOUDY    55  25  30 SW7G13    30.22F
WINCHESTER     CLOUDY    55  27  33 VRB6      30.23F
MCMINNVILLE    PTSUNNY   55  28  35 W12       30.21F
COLUMBIA       SUNNY     59  19  21 SW9       30.19F
SHELBYVILLE    CLOUDY    54  25  32 S7        30.22F
$$

TNZ017-018-042-046-047-201900-
NORTHEAST TENNESSEE

CITY           SKY/WX    TMP DP  RH WIND       PRES   REMARKS
TRI CITIES     CLOUDY    43  28  55 CALM      30.23F
ELIZABETHTON   CLOUDY    46  34  61 SW3       30.23F
$$

TNZ012-013-036-069-073-074-201900-
CENTRAL EAST TENNESSEE

CITY           SKY/WX    TMP DP  RH WIND       PRES   REMARKS
KNOXVILLE      PTSUNNY   49  29  46 S6        30.23F
OAK RIDGE      CLOUDY    52  27  38 VRB3      30.24F
DOWNTOWN KNOXV CLOUDY    48  27  43 W5        30.24F
GATLINBURG     CLOUDY    46  27  46 CALM      30.24F
MORRISTOWN     CLOUDY    45  27  49 CALM      30.22F
JACKSBORO      CLOUDY    46  25  42 CALM      30.25F
$$

TNZ083-085-099-201900-
SOUTHEAST TENNESSEE

CITY           SKY/WX    TMP DP  RH WIND       PRES   REMARKS
CHATTANOOGA    PTSUNNY   55  26  32 S8        30.25F
DAYTON         CLEAR     54  30  40 W3        30.24F
$$

SKY/WX REPORTED AS FAIR MEANS FEW OR NO CLOUDS BELOW
12 THOUSAND FEET.





USA.gov is the U.S. government's official web portal to all federal, state and local government web resources and services.